Tracking 34094 objects as of 11-May-2026
HD Live streaming from Space Station
objects crossing your sky now

ONEWEB-0069

Track ONEWEB-0069 now!
10-day predictions
ONEWEB-0069 is classified as:


NORAD ID: 45430
Int'l Code: 2020-020G
Perigee: 1,225.5 km
Apogee: 1,228.4 km
Inclination: 87.9 °
Period: 109.9 minutes
Semi major axis: 7597 km
RCS: Unknown
Launch date: March 21, 2020
Source: United Kingdom (UK)
Launch site: TYURATAM MISSILE AND SPACE COMPLEX (TTMTR)
Your satellite tracking list
Your tracking list is empty




NASA's NSSDC Master Catalog

Two Line Element Set (TLE):
1 45430U 20020G   26130.76002638 -.00000089  00000-0 -28797-3 0  9999
2 45430  87.8928  28.5089 0001901  79.8806 280.2536 13.10860821297768
Source of the keplerian elements: AFSPC